Chamberlain, SD

1:50 PM CDT on July 23, 2017 (GMT -0500)
Chamberlain

Weather History for K9V9 - May, 2013

Change the Weather History Date:

Saturday, May 18, 2013

  Actual Average Record
Temperature  
Mean Temperature 70 °F -  
Max Temperature 82 °F 66 °F 91 °F (2006)
Min Temperature 60 °F 44 °F 32 °F (2002)
Cooling Degree Days 6    
Growing Degree Days 20 (Base 50)    
Moisture  
Dew Point 60 °F    
Average Humidity 73    
Maximum Humidity 93    
Minimum Humidity 52    
Precipitation  
Precipitation 1.04 in - - ()
Sea Level Pressure  
Sea Level Pressure 29.73 in    
Wind  
Wind Speed 14 mph (SSE)    
Max Wind Speed 28 mph    
Max Gust Speed 48 mph    
Averages and records for this station are not official NWS values.
T = Trace of Precipitation, MM = Missing Value Source: NWS Daily Summary

Daily Weather History Graph

Daily Weather History Graph

Search for Another Location

Airport or City:

Trip Planner

Search our weather history database for the weather conditions in past years. The results will help you decide how hot, cold, wet, or windy it might be!

Date:

Astronomy

May. 18, 2013 Rise Set
Actual Time 6:08 AM CDT 8:59 PM CDT
Civil Twilight 5:34 AM CDT 9:33 PM CDT
Nautical Twilight 4:52 AM CDT 10:16 PM CDT
Astronomical Twilight 4:02 AM CDT 11:06 PM CDT
Moon 1:51 PM CDT (5/18) 2:15 AM CDT (5/18)
Length of Visible Light 15h 58m
Length of Day
14h 51m
First Quarter, 55% of the Moon is Illuminated
May 18
First Quarter
May 24
Full
May 31
Last Quarter
Jun 8
New
Jun 16
First Quarter

Hourly Weather History & Observations

Time (CDT) Temp. Heat Index Dew Point Humidity Pressure Visibility Wind Dir Wind Speed Gust Speed Precip Events Conditions
12:17 AM 66.2 °F - 55.4 °F 68% 29.83 in - SW 24.2 mph 35.7 mph 0.01 in   Unknown
12:52 AM 63.0 °F - 57.0 °F 81% 29.77 in - WSW 6.9 mph - 0.04 in   Unknown
1:52 AM 66.0 °F - 55.9 °F 70% 29.73 in - SW 6.9 mph - 0.01 in   Unknown
2:52 AM 66.0 °F - 57.0 °F 73% 29.75 in - WSW 9.2 mph - N/A   Unknown
3:52 AM 66.9 °F - 57.9 °F 73% 29.76 in - SSW 13.8 mph - N/A   Unknown
4:52 AM 64.0 °F - 57.0 °F 78% 29.83 in - WNW 12.7 mph - 0.01 in   Unknown
5:52 AM 60.1 °F - 57.9 °F 93% 29.83 in - NNW 9.2 mph - 0.25 in   Unknown
6:52 AM 60.1 °F - 57.9 °F 93% 29.88 in - WNW 9.2 mph - 0.42 in   Unknown
7:52 AM 62.1 °F - 57.9 °F 86% 29.83 in - SSE 10.4 mph - 0.13 in   Unknown
8:52 AM 62.1 °F - 57.0 °F 84% 29.73 in - SE 26.5 mph - 0.08 in   Unknown
9:52 AM 64.0 °F - 55.9 °F 75% 29.68 in - ESE 25.3 mph 34.5 mph N/A   Unknown
10:52 AM 66.9 °F - 57.0 °F 70% 29.74 in - ESE 9.2 mph 16.1 mph N/A   Unknown
11:52 AM 73.0 °F - 62.1 °F 68% 29.76 in - South 5.8 mph - N/A   Unknown
12:52 PM 79.0 °F - 63.0 °F 58% 29.74 in - SSE 21.9 mph - N/A   Unknown
1:52 PM 81.0 °F 81.9 °F 62.1 °F 52% 29.73 in - SSE 16.1 mph 25.3 mph N/A   Unknown
2:52 PM 80.1 °F 81.2 °F 62.1 °F 54% 29.72 in - SSE 17.3 mph 25.3 mph N/A   Unknown
3:52 PM 79.0 °F - 62.1 °F 56% 29.73 in - SSE 15.0 mph - N/A   Unknown
4:52 PM 77.0 °F - 63.0 °F 62% 29.72 in - SE 12.7 mph - N/A   Unknown
5:52 PM 78.1 °F - 64.0 °F 62% 29.70 in - SE 10.4 mph - N/A   Unknown
6:52 PM 78.1 °F - 64.9 °F 64% 29.66 in - SE 12.7 mph - N/A   Unknown
7:52 PM 73.0 °F - 64.9 °F 76% 29.64 in - SE 9.2 mph - N/A   Unknown
8:52 PM 72.0 °F - 64.9 °F 78% 29.62 in - ESE 8.1 mph - N/A   Unknown
9:52 PM 71.1 °F - 64.9 °F 81% 29.62 in - ESE 8.1 mph - N/A   Unknown
10:52 PM 70.0 °F - 64.0 °F 81% 29.59 in - ESE 13.8 mph - N/A   Unknown
11:52 PM 66.0 °F - 61.0 °F 84% 29.65 in - SW 27.6 mph 48.3 mph 0.10 in   Unknown